Time,TemperatureF,DewpointF,PressureIn,WindDirection,WindDirectionDegrees,WindSpeedMPH,WindSpeedGustMPH,Humidity,HourlyPrecipIn,Conditions,Clouds,dailyrainin,SoftwareType,DateUTC
2013-02-25 00:01:00,34.0,22.0,-100.00,North,-999,0.0,0.0,62,-99.99,,,-99.99,,2013-02-25 08:01:00,
2013-02-25 00:11:00,33.0,21.0,-100.00,North,-999,0.0,0.0,61,-99.99,,,-99.99,,2013-02-25 08:11:00,
2013-02-25 00:21:00,33.0,21.0,-100.00,North,-999,0.0,0.0,61,-99.99,,,-99.99,,2013-02-25 08:21:00,
2013-02-25 00:31:00,33.0,21.0,-100.00,North,-999,0.0,0.0,61,-99.99,,,-99.99,,2013-02-25 08:31:00,
2013-02-25 00:41:00,33.0,21.0,-100.00,North,-999,0.0,0.0,61,-99.99,,,-99.99,,2013-02-25 08:41:00,
2013-02-25 00:52:00,33.0,21.0,-100.00,North,-999,0.0,0.0,61,-99.99,,,-99.99,,2013-02-25 08:52:00,
2013-02-25 01:01:00,33.0,21.0,-100.00,North,-999,0.0,0.0,61,-99.99,,,-99.99,,2013-02-25 09:01:00,
2013-02-25 01:12:00,33.0,21.0,-100.00,North,-999,0.0,0.0,61,-99.99,,,-99.99,,2013-02-25 09:12:00,
2013-02-25 01:21:00,33.0,21.0,-100.00,North,-999,0.0,0.0,61,-99.99,,,-99.99,,2013-02-25 09:21:00,
2013-02-25 01:31:00,33.0,22.0,-100.00,North,-999,0.0,0.0,62,-99.99,,,-99.99,,2013-02-25 09:31:00,
2013-02-25 01:41:00,33.0,22.0,-100.00,North,-999,0.0,0.0,63,-99.99,,,-99.99,,2013-02-25 09:41:00,
2013-02-25 01:51:00,33.0,22.0,-100.00,North,-999,0.0,0.0,63,-99.99,,,-99.99,,2013-02-25 09:51:00,
2013-02-25 02:01:00,33.0,22.0,-100.00,North,-999,0.0,0.0,64,-99.99,,,-99.99,,2013-02-25 10:01:00,
2013-02-25 02:11:00,33.0,22.0,-100.00,North,-999,0.0,0.0,65,-99.99,,,-99.99,,2013-02-25 10:11:00,
2013-02-25 02:21:00,33.0,22.0,-100.00,North,-999,0.0,0.0,65,-99.99,,,-99.99,,2013-02-25 10:21:00,
2013-02-25 02:31:00,33.0,23.0,-100.00,North,-999,0.0,0.0,67,-99.99,,,-99.99,,2013-02-25 10:31:00,
2013-02-25 02:41:00,34.0,24.0,-100.00,North,-999,0.0,0.0,66,-99.99,,,-99.99,,2013-02-25 10:41:00,
2013-02-25 02:52:00,34.0,24.0,-100.00,North,-999,0.0,0.0,66,-99.99,,,-99.99,,2013-02-25 10:52:00,
2013-02-25 03:01:00,34.0,24.0,-100.00,North,-999,0.0,0.0,66,-99.99,,,-99.99,,2013-02-25 11:01:00,
2013-02-25 03:11:00,34.0,25.0,-100.00,North,-999,0.0,0.0,68,-99.99,,,-99.99,,2013-02-25 11:11:00,
2013-02-25 03:21:00,34.0,25.0,-100.00,North,-999,0.0,0.0,68,-99.99,,,-99.99,,2013-02-25 11:21:00,
2013-02-25 03:32:00,34.0,25.0,-100.00,North,-999,0.0,0.0,71,-99.99,,,-99.99,,2013-02-25 11:32:00,
2013-02-25 03:42:00,33.0,27.0,-100.00,North,-999,0.0,0.0,77,-99.99,,,-99.99,,2013-02-25 11:42:00,
2013-02-25 03:52:00,33.0,27.0,-100.00,North,-999,0.0,0.0,77,-99.99,,,-99.99,,2013-02-25 11:52:00,
2013-02-25 04:01:00,32.0,28.0,-100.00,North,-999,0.0,0.0,82,-99.99,,,-99.99,,2013-02-25 12:01:00,
2013-02-25 04:11:00,32.0,29.0,-100.00,North,-999,0.0,0.0,87,-99.99,,,-99.99,,2013-02-25 12:11:00,
2013-02-25 04:21:00,32.0,29.0,-100.00,North,-999,0.0,0.0,87,-99.99,,,-99.99,,2013-02-25 12:21:00,
2013-02-25 04:32:00,32.0,30.0,-100.00,North,-999,0.0,0.0,90,-99.99,,,-99.99,,2013-02-25 12:32:00,
2013-02-25 04:42:00,32.0,30.0,-100.00,North,-999,0.0,0.0,92,-99.99,,,-99.99,,2013-02-25 12:42:00,
2013-02-25 04:53:00,32.0,30.0,-100.00,North,-999,0.0,0.0,92,-99.99,,,-99.99,,2013-02-25 12:53:00,
2013-02-25 05:02:00,32.0,30.0,-100.00,North,-999,0.0,0.0,93,-99.99,,,-99.99,,2013-02-25 13:02:00,
2013-02-25 05:12:00,32.0,30.0,-100.00,North,-999,0.0,0.0,94,-99.99,,,-99.99,,2013-02-25 13:12:00,
2013-02-25 05:22:00,32.0,30.0,-100.00,North,-999,0.0,0.0,94,-99.99,,,-99.99,,2013-02-25 13:22:00,
2013-02-25 05:32:00,30.0,29.0,-100.00,North,-999,0.0,0.0,94,-99.99,,,-99.99,,2013-02-25 13:32:00,
2013-02-25 05:42:00,29.0,27.0,-100.00,North,-999,0.0,0.0,94,-99.99,,,-99.99,,2013-02-25 13:42:00,
2013-02-25 05:51:00,29.0,27.0,-100.00,North,-999,0.0,0.0,94,-99.99,,,-99.99,,2013-02-25 13:51:00,
2013-02-25 06:02:00,28.0,27.0,-100.00,North,-999,0.0,0.0,93,-99.99,,,-99.99,,2013-02-25 14:02:00,
2013-02-25 06:16:00,28.0,26.0,-100.00,North,-999,0.0,0.0,92,-99.99,,,-99.99,,2013-02-25 14:16:00,
2013-02-25 06:21:00,28.0,26.0,-100.00,North,-999,0.0,0.0,92,-99.99,,,-99.99,,2013-02-25 14:21:00,
2013-02-25 06:31:00,27.0,24.0,-100.00,North,-999,0.0,0.0,88,-99.99,,,-99.99,,2013-02-25 14:31:00,
2013-02-25 06:42:00,27.0,22.0,-100.00,North,-999,0.0,0.0,83,-99.99,,,-99.99,,2013-02-25 14:42:00,
2013-02-25 06:52:00,27.0,22.0,-100.00,North,-999,0.0,0.0,83,-99.99,,,-99.99,,2013-02-25 14:52:00,
2013-02-25 07:02:00,26.0,21.0,-100.00,North,-999,0.0,0.0,80,-99.99,,,-99.99,,2013-02-25 15:02:00,
2013-02-25 07:11:00,26.0,21.0,-100.00,North,-999,0.0,0.0,81,-99.99,,,-99.99,,2013-02-25 15:11:00,
2013-02-25 07:21:00,26.0,21.0,-100.00,North,-999,0.0,0.0,81,-99.99,,,-99.99,,2013-02-25 15:21:00,
2013-02-25 07:32:00,26.0,21.0,-100.00,North,-999,0.0,0.0,79,-99.99,,,-99.99,,2013-02-25 15:32:00,
2013-02-25 07:41:00,27.0,21.0,-100.00,North,-999,0.0,0.0,79,-99.99,,,-99.99,,2013-02-25 15:41:00,
2013-02-25 07:51:00,27.0,21.0,-100.00,North,-999,0.0,0.0,79,-99.99,,,-99.99,,2013-02-25 15:51:00,
2013-02-25 08:01:00,27.0,21.0,-100.00,North,-999,0.0,0.0,79,-99.99,,,-99.99,,2013-02-25 16:01:00,
2013-02-25 08:11:00,28.0,21.0,-100.00,North,-999,0.0,0.0,76,-99.99,,,-99.99,,2013-02-25 16:11:00,
2013-02-25 08:21:00,28.0,21.0,-100.00,North,-999,0.0,0.0,76,-99.99,,,-99.99,,2013-02-25 16:21:00,
2013-02-25 08:31:00,28.0,21.0,-100.00,North,-999,0.0,0.0,74,-99.99,,,-99.99,,2013-02-25 16:31:00,
2013-02-25 08:42:00,29.0,21.0,-100.00,North,-999,0.0,0.0,69,-99.99,,,-99.99,,2013-02-25 16:42:00,
2013-02-25 08:51:00,29.0,21.0,-100.00,North,-999,0.0,0.0,69,-99.99,,,-99.99,,2013-02-25 16:51:00,
2013-02-25 09:01:00,30.0,20.0,-100.00,North,-999,0.0,0.0,67,-99.99,,,-99.99,,2013-02-25 17:01:00,
2013-02-25 09:11:00,30.0,21.0,-100.00,North,-999,0.0,0.0,67,-99.99,,,-99.99,,2013-02-25 17:11:00,
2013-02-25 09:21:00,30.0,21.0,-100.00,North,-999,0.0,0.0,67,-99.99,,,-99.99,,2013-02-25 17:21:00,
2013-02-25 09:31:00,30.0,21.0,-100.00,North,-999,0.0,0.0,67,-99.99,,,-99.99,,2013-02-25 17:31:00,
2013-02-25 09:41:00,32.0,21.0,-100.00,North,-999,0.0,0.0,65,-99.99,,,-99.99,,2013-02-25 17:41:00,
2013-02-25 09:52:00,32.0,21.0,-100.00,North,-999,0.0,0.0,65,-99.99,,,-99.99,,2013-02-25 17:52:00,
2013-02-25 10:01:00,32.0,22.0,-100.00,North,-999,0.0,0.0,66,-99.99,,,-99.99,,2013-02-25 18:01:00,
2013-02-25 10:12:00,32.0,22.0,-100.00,North,-999,0.0,0.0,66,-99.99,,,-99.99,,2013-02-25 18:12:00,
2013-02-25 10:21:00,32.0,22.0,-100.00,North,-999,0.0,0.0,66,-99.99,,,-99.99,,2013-02-25 18:21:00,
2013-02-25 10:32:00,33.0,22.0,-100.00,North,-999,0.0,0.0,65,-99.99,,,-99.99,,2013-02-25 18:32:00,
2013-02-25 10:41:00,33.0,21.0,-100.00,North,-999,0.0,0.0,62,-99.99,,,-99.99,,2013-02-25 18:41:00,
2013-02-25 10:51:00,33.0,21.0,-100.00,North,-999,0.0,0.0,62,-99.99,,,-99.99,,2013-02-25 18:51:00,
2013-02-25 11:01:00,34.0,19.0,-100.00,North,-999,0.0,0.0,55,-99.99,,,-99.99,,2013-02-25 19:01:00,
2013-02-25 11:11:00,34.0,18.0,-100.00,North,-999,0.0,0.0,52,-99.99,,,-99.99,,2013-02-25 19:11:00,
2013-02-25 11:21:00,34.0,18.0,-100.00,North,-999,0.0,0.0,52,-99.99,,,-99.99,,2013-02-25 19:21:00,
2013-02-25 11:31:00,34.0,18.0,-100.00,North,-999,0.0,0.0,50,-99.99,,,-99.99,,2013-02-25 19:31:00,
2013-02-25 11:41:00,34.0,19.0,-100.00,North,-999,0.0,0.0,54,-99.99,,,-99.99,,2013-02-25 19:41:00,
2013-02-25 11:52:00,34.0,19.0,-100.00,North,-999,0.0,0.0,54,-99.99,,,-99.99,,2013-02-25 19:52:00,
2013-02-25 12:01:00,36.0,18.0,-100.00,North,-999,0.0,0.0,48,-99.99,,,-99.99,,2013-02-25 20:01:00,
2013-02-25 12:11:00,35.0,16.0,-100.00,North,-999,0.0,0.0,46,-99.99,,,-99.99,,2013-02-25 20:11:00,
2013-02-25 12:21:00,35.0,16.0,-100.00,North,-999,0.0,0.0,46,-99.99,,,-99.99,,2013-02-25 20:21:00,
2013-02-25 12:31:00,34.0,17.0,-100.00,North,-999,0.0,0.0,49,-99.99,,,-99.99,,2013-02-25 20:31:00,
2013-02-25 12:41:00,35.0,20.0,-100.00,North,-999,0.0,0.0,54,-99.99,,,-99.99,,2013-02-25 20:41:00,
2013-02-25 12:52:00,35.0,20.0,-100.00,North,-999,0.0,0.0,54,-99.99,,,-99.99,,2013-02-25 20:52:00,
2013-02-25 13:01:00,37.0,21.0,-100.00,North,-999,0.0,0.0,51,-99.99,,,-99.99,,2013-02-25 21:01:00,
2013-02-25 13:11:00,34.0,18.0,-100.00,North,-999,0.0,0.0,51,-99.99,,,-99.99,,2013-02-25 21:11:00,
2013-02-25 13:21:00,34.0,18.0,-100.00,North,-999,0.0,0.0,51,-99.99,,,-99.99,,2013-02-25 21:21:00,
2013-02-25 13:31:00,36.0,21.0,-100.00,North,-999,0.0,0.0,52,-99.99,,,-99.99,,2013-02-25 21:31:00,
2013-02-25 13:42:00,32.0,20.0,-100.00,North,-999,0.0,0.0,60,-99.99,,,-99.99,,2013-02-25 21:42:00,
2013-02-25 13:51:00,32.0,20.0,-100.00,North,-999,0.0,0.0,60,-99.99,,,-99.99,,2013-02-25 21:51:00,
2013-02-25 14:01:00,32.0,21.0,-100.00,North,-999,0.0,0.0,61,-99.99,,,-99.99,,2013-02-25 22:01:00,
2013-02-25 14:11:00,32.0,18.0,-100.00,North,-999,0.0,0.0,54,-99.99,,,-99.99,,2013-02-25 22:11:00,
2013-02-25 14:21:00,32.0,18.0,-100.00,North,-999,0.0,0.0,54,-99.99,,,-99.99,,2013-02-25 22:21:00,
2013-02-25 14:31:00,33.0,19.0,-100.00,North,-999,0.0,0.0,55,-99.99,,,-99.99,,2013-02-25 22:31:00,
2013-02-25 14:41:00,34.0,19.0,-100.00,North,-999,0.0,0.0,53,-99.99,,,-99.99,,2013-02-25 22:41:00,
2013-02-25 14:51:00,35.0,18.0,-100.00,North,-999,0.0,0.0,50,-99.99,,,-99.99,,2013-02-25 22:51:00,
2013-02-25 15:01:00,35.0,18.0,-100.00,North,-999,0.0,0.0,50,-99.99,,,-99.99,,2013-02-25 23:01:00,
2013-02-25 15:11:00,33.0,19.0,-100.00,North,-999,0.0,0.0,55,-99.99,,,-99.99,,2013-02-25 23:11:00,
2013-02-25 15:22:00,33.0,19.0,-100.00,North,-999,0.0,0.0,55,-99.99,,,-99.99,,2013-02-25 23:22:00,
2013-02-25 15:31:00,34.0,20.0,-100.00,North,-999,0.0,0.0,56,-99.99,,,-99.99,,2013-02-25 23:31:00,
2013-02-25 15:41:00,34.0,18.0,-100.00,North,-999,0.0,0.0,51,-99.99,,,-99.99,,2013-02-25 23:41:00,
2013-02-25 15:52:00,34.0,18.0,-100.00,North,-999,0.0,0.0,51,-99.99,,,-99.99,,2013-02-25 23:52:00,
2013-02-25 16:01:00,34.0,15.0,-100.00,North,-999,0.0,0.0,45,-99.99,,,-99.99,,2013-02-26 00:01:00,
2013-02-25 16:11:00,34.0,15.0,-100.00,North,-999,0.0,0.0,45,-99.99,,,-99.99,,2013-02-26 00:11:00,
2013-02-25 16:21:00,34.0,15.0,-100.00,North,-999,0.0,0.0,45,-99.99,,,-99.99,,2013-02-26 00:21:00,
2013-02-25 16:32:00,32.0,14.0,-100.00,North,-999,0.0,0.0,47,-99.99,,,-99.99,,2013-02-26 00:32:00,
2013-02-25 16:41:00,32.0,15.0,-100.00,North,-999,0.0,0.0,48,-99.99,,,-99.99,,2013-02-26 00:41:00,
2013-02-25 16:51:00,32.0,15.0,-100.00,North,-999,0.0,0.0,48,-99.99,,,-99.99,,2013-02-26 00:51:00,
2013-02-25 17:02:00,31.0,14.0,-100.00,North,-999,0.0,0.0,50,-99.99,,,-99.99,,2013-02-26 01:02:00,
2013-02-25 17:11:00,30.0,14.0,-100.00,North,-999,0.0,0.0,52,-99.99,,,-99.99,,2013-02-26 01:11:00,
2013-02-25 17:21:00,30.0,14.0,-100.00,North,-999,0.0,0.0,52,-99.99,,,-99.99,,2013-02-26 01:21:00,
2013-02-25 17:31:00,30.0,14.0,-100.00,North,-999,0.0,0.0,51,-99.99,,,-99.99,,2013-02-26 01:31:00,
2013-02-25 17:41:00,28.0,13.0,-100.00,North,-999,0.0,0.0,53,-99.99,,,-99.99,,2013-02-26 01:41:00,
2013-02-25 17:51:00,28.0,13.0,-100.00,North,-999,0.0,0.0,53,-99.99,,,-99.99,,2013-02-26 01:51:00,
2013-02-25 18:01:00,27.0,12.0,-100.00,North,-999,0.0,0.0,53,-99.99,,,-99.99,,2013-02-26 02:01:00,
2013-02-25 18:11:00,26.0,12.0,-100.00,North,-999,0.0,0.0,55,-99.99,,,-99.99,,2013-02-26 02:11:00,
2013-02-25 18:21:00,26.0,12.0,-100.00,North,-999,0.0,0.0,55,-99.99,,,-99.99,,2013-02-26 02:21:00,
2013-02-25 18:32:00,26.0,13.0,-100.00,North,-999,0.0,0.0,56,-99.99,,,-99.99,,2013-02-26 02:32:00,
2013-02-25 18:41:00,26.0,13.0,-100.00,North,-999,0.0,0.0,58,-99.99,,,-99.99,,2013-02-26 02:41:00,
2013-02-25 18:52:00,26.0,13.0,-100.00,North,-999,0.0,0.0,58,-99.99,,,-99.99,,2013-02-26 02:52:00,
2013-02-25 19:01:00,26.0,14.0,-100.00,North,-999,0.0,0.0,60,-99.99,,,-99.99,,2013-02-26 03:01:00,
2013-02-25 19:11:00,26.0,15.0,-100.00,North,-999,0.0,0.0,62,-99.99,,,-99.99,,2013-02-26 03:11:00,
2013-02-25 19:21:00,26.0,15.0,-100.00,North,-999,0.0,0.0,62,-99.99,,,-99.99,,2013-02-26 03:21:00,
2013-02-25 19:31:00,26.0,15.0,-100.00,North,-999,0.0,0.0,63,-99.99,,,-99.99,,2013-02-26 03:31:00,
2013-02-25 19:41:00,26.0,16.0,-100.00,North,-999,0.0,0.0,64,-99.99,,,-99.99,,2013-02-26 03:41:00,
2013-02-25 19:52:00,26.0,16.0,-100.00,North,-999,0.0,0.0,64,-99.99,,,-99.99,,2013-02-26 03:52:00,
2013-02-25 20:01:00,26.0,16.0,-100.00,North,-999,0.0,0.0,66,-99.99,,,-99.99,,2013-02-26 04:01:00,
2013-02-25 20:11:00,25.0,16.0,-100.00,North,-999,0.0,0.0,67,-99.99,,,-99.99,,2013-02-26 04:11:00,
2013-02-25 20:21:00,25.0,16.0,-100.00,North,-999,0.0,0.0,67,-99.99,,,-99.99,,2013-02-26 04:21:00,
2013-02-25 20:31:00,25.0,16.0,-100.00,North,-999,0.0,0.0,68,-99.99,,,-99.99,,2013-02-26 04:31:00,
2013-02-25 20:42:00,25.0,17.0,-100.00,North,-999,0.0,0.0,69,-99.99,,,-99.99,,2013-02-26 04:42:00,
2013-02-25 20:51:00,25.0,17.0,-100.00,North,-999,0.0,0.0,69,-99.99,,,-99.99,,2013-02-26 04:51:00,
2013-02-25 21:01:00,26.0,17.0,-100.00,North,-999,0.0,0.0,69,-99.99,,,-99.99,,2013-02-26 05:01:00,
2013-02-25 21:11:00,25.0,17.0,-100.00,North,-999,0.0,0.0,70,-99.99,,,-99.99,,2013-02-26 05:11:00,
2013-02-25 21:21:00,25.0,17.0,-100.00,North,-999,0.0,0.0,70,-99.99,,,-99.99,,2013-02-26 05:21:00,
2013-02-25 21:31:00,25.0,17.0,-100.00,North,-999,0.0,0.0,72,-99.99,,,-99.99,,2013-02-26 05:31:00,
2013-02-25 21:42:00,25.0,18.0,-100.00,North,-999,0.0,0.0,74,-99.99,,,-99.99,,2013-02-26 05:42:00,
2013-02-25 21:52:00,25.0,18.0,-100.00,North,-999,0.0,0.0,74,-99.99,,,-99.99,,2013-02-26 05:52:00,
2013-02-25 22:01:00,24.0,18.0,-100.00,North,-999,0.0,0.0,75,-99.99,,,-99.99,,2013-02-26 06:01:00,
2013-02-25 22:11:00,23.0,17.0,-100.00,North,-999,0.0,0.0,77,-99.99,,,-99.99,,2013-02-26 06:11:00,
2013-02-25 22:21:00,23.0,17.0,-100.00,North,-999,0.0,0.0,77,-99.99,,,-99.99,,2013-02-26 06:21:00,
2013-02-25 22:31:00,23.0,18.0,-100.00,North,-999,0.0,0.0,78,-99.99,,,-99.99,,2013-02-26 06:31:00,
2013-02-25 22:41:00,23.0,17.0,-100.00,North,-999,0.0,0.0,79,-99.99,,,-99.99,,2013-02-26 06:41:00,
2013-02-25 22:51:00,23.0,17.0,-100.00,North,-999,0.0,0.0,79,-99.99,,,-99.99,,2013-02-26 06:51:00,
2013-02-25 23:01:00,22.0,17.0,-100.00,North,-999,0.0,0.0,81,-99.99,,,-99.99,,2013-02-26 07:01:00,
2013-02-25 23:11:00,22.0,17.0,-100.00,North,-999,0.0,0.0,82,-99.99,,,-99.99,,2013-02-26 07:11:00,
2013-02-25 23:22:00,22.0,17.0,-100.00,North,-999,0.0,0.0,82,-99.99,,,-99.99,,2013-02-26 07:22:00,
2013-02-25 23:31:00,21.0,17.0,-100.00,North,-999,0.0,0.0,82,-99.99,,,-99.99,,2013-02-26 07:31:00,
2013-02-25 23:41:00,21.0,17.0,-100.00,North,-999,0.0,0.0,84,-99.99,,,-99.99,,2013-02-26 07:41:00,
2013-02-25 23:51:00,20.0,16.0,-100.00,North,-999,0.0,0.0,84,-99.99,,,-99.99,,2013-02-26 07:51:00,